Total_Precipitation_Accumulation
1.10 0.99 0.78 0.82 0.64 0.64 0.99 1.00 1.14 1.14 0.83 0.67 0.68 0.82 0.93 1.00 0.96 1.01 1.29 1.32 1.35 1.49 1.69 1.91 1.92 1.74 1.40 1.17 1.26 1.40 1.38 1.26
0.60 1.15 0.77 0.95 0.67 0.58 0.63 0.95 1.02 0.72 0.44 0.36 0.42 0.49 0.59 0.96 1.04 0.77 1.01 1.26 1.25 1.18 1.47 2.23 2.39 1.58 1.13 1.19 1.45 1.44 1.29 1.18
0.62 0.80 0.87 0.65 0.72 0.68 0.60 0.38 0.40 0.47 0.38 0.23 0.17 0.22 0.36 0.70 1.03 0.82 0.86 0.98 1.06 1.20 1.00 1.10 1.67 1.96 1.83 1.41 1.44 1.68 1.50 1.44
0.41 0.67 0.90 0.80 0.41 0.40 0.55 0.25 0.15 0.22 0.41 0.56 0.53 0.34 0.41 1.14 1.44 1.12 0.90 0.99 1.03 1.14 1.10 1.02 1.18 1.84 1.87 1.50 1.18 1.39 1.79 1.65
0.79 0.42 0.40 0.88 0.84 0.38 0.62 0.39 0.12 0.17 0.26 0.45 0.67 0.70 0.53 0.74 1.22 1.09 0.88 1.17 1.13 0.99 1.17 1.22 1.15 1.16 1.48 1.49 1.26 1.16 1.74 1.72
0.66 0.80 0.51 0.48 1.01 0.86 0.71 0.54 0.42 0.22 0.30 0.51 0.82 0.90 0.89 1.01 1.45 1.74 1.40 1.33 1.41 1.39 1.36 1.52 1.59 1.72 1.34 1.86 1.83 1.78 2.03 1.85
0.42 0.53 0.78 0.72 0.50 0.71 0.76 0.45 0.51 0.40 0.52 0.62 0.68 0.79 0.76 0.98 1.37 2.03 2.35 2.12 1.93 1.72 1.64 1.58 1.52 1.61 1.74 2.00 2.42 2.53 2.58 2.34
0.97 0.39 0.59 0.92 0.96 0.53 0.47 0.36 0.46 0.44 0.52 0.61 0.68 0.86 1.11 1.09 1.16 1.75 2.37 2.99 3.02 2.65 2.54 2.13 1.87 1.65 1.73 2.09 2.69 2.98 3.34 3.41
0.82 0.95 0.59 0.99 1.21 0.89 0.58 0.48 0.62 0.54 0.61 0.80 0.80 0.89 1.10 1.38 1.26 1.41 2.19 2.60 2.84 2.74 2.95 3.20 3.08 2.80 2.55 2.35 2.49 2.55 2.62 2.90
0.64 0.68 0.93 0.91 1.32 1.37 0.78 0.56 0.71 0.66 0.68 0.94 1.05 1.14 1.27 1.25 1.19 1.27 1.79 2.23 2.46 2.58 2.97 2.91 3.06 3.26 3.48 3.48 3.01 2.63 2.50 2.44
1.05 0.68 0.63 1.15 1.23 1.76 1.55 0.84 0.68 0.72 0.78 0.85 0.80 0.94 1.21 1.30 1.31 1.40 1.54 2.08 2.75 3.19 3.41 3.24 3.29 3.30 3.48 3.85 3.80 3.46 3.34 3.02
0.72 1.29 0.80 1.27 1.57 1.63 1.95 1.48 1.27 1.09 0.95 0.87 1.01 1.22 1.61 1.74 1.86 1.91 2.13 2.68 2.96 2.99 3.35 3.62 3.30 3.33 3.65 3.87 4.03 4.03 3.82 3.77
0.44 1.22 1.53 1.45 1.87 2.05 1.92 1.84 1.69 1.45 1.32 1.34 1.77 2.19 2.34 2.27 2.29 2.56 2.56 2.45 2.54 2.64 2.91 3.09 3.18 3.54 3.73 3.81 3.91 3.82 3.63 3.68
0.32 0.59 1.03 1.68 1.10 1.81 1.66 1.42 1.88 2.01 1.98 2.03 2.20 2.37 2.44 2.64 2.68 2.48 2.33 2.61 2.91 2.83 2.98 3.26 3.13 3.24 3.64 3.98 4.10 4.02 3.95 3.94
0.32 0.40 0.54 0.81 1.16 1.76 2.89 1.59 1.83 2.07 2.06 1.81 1.94 2.34 2.44 2.48 2.34 2.07 1.82 1.93 2.07 2.32 2.34 2.41 2.52 2.67 2.80 3.15 3.40 3.62 3.43 3.37
0.40 0.47 0.54 0.62 0.74 0.73 1.24 1.48 2.00 2.42 2.17 1.93 2.21 2.21 2.25 2.25 2.14 1.75 1.49 1.52 1.51 1.49 1.52 1.75 1.91 2.11 2.45 2.47 2.68 2.99 3.09 3.10
0.55 0.44 0.44 0.51 0.63 0.83 0.93 1.14 1.54 1.92 2.13 2.49 2.16 2.47 2.44 1.96 1.99 1.79 1.61 1.54 1.49 1.62 1.46 1.59 1.94 1.99 2.55 2.51 2.46 2.66 2.82 2.85
0.79 0.69 0.61 0.47 0.51 0.49 0.51 0.72 1.00 1.13 1.83 2.69 2.65 2.96 3.90 2.90 2.01 1.99 1.94 2.18 2.05 1.87 2.03 1.98 1.95 1.91 2.57 2.56 2.60 2.37 2.77 2.83
1.52 1.09 0.90 0.75 0.53 0.60 0.59 0.56 0.56 0.65 0.65 1.14 2.22 2.61 3.43 4.29 3.29 2.73 2.83 2.64 2.62 2.27 2.14 2.11 1.96 2.60 2.77 3.02 3.36 2.82 2.50 2.66